Time,TemperatureF,DewpointF,PressureIn,WindDirection,WindDirectionDegrees,WindSpeedMPH,WindSpeedGustMPH,Humidity,HourlyPrecipIn,Conditions,Clouds,dailyrainin,SoftwareType,DateUTC
2013-03-11 00:01:00,47.5,28.0,30.18,SE,140,0.0,-999.0,48,-99.99,,,0.00,weatherlink.com 1.10,2013-03-11 04:01:00,
2013-03-11 00:16:00,46.8,28.0,30.19,ESE,121,0.0,-999.0,49,-99.99,,,0.00,weatherlink.com 1.10,2013-03-11 04:16:00,
2013-03-11 00:31:00,47.0,28.0,30.19,SSE,156,8.0,-999.0,48,-99.99,,,0.00,weatherlink.com 1.10,2013-03-11 04:31:00,
2013-03-11 01:01:00,47.3,28.0,30.19,SSE,147,2.0,-999.0,47,-99.99,,,0.00,weatherlink.com 1.10,2013-03-11 05:01:00,
2013-03-11 01:16:00,47.1,28.0,30.20,SE,129,2.0,-999.0,48,-99.99,,,0.00,weatherlink.com 1.10,2013-03-11 05:16:00,
2013-03-11 01:31:00,46.9,28.0,30.19,SSE,161,11.0,-999.0,49,-99.99,,,0.00,weatherlink.com 1.10,2013-03-11 05:31:00,
2013-03-11 01:46:00,46.7,28.0,30.18,SSE,167,6.0,-999.0,49,-99.99,,,0.00,weatherlink.com 1.10,2013-03-11 05:46:00,
2013-03-11 03:01:00,45.1,30.0,30.16,South,186,12.0,-999.0,55,-99.99,,,0.00,weatherlink.com 1.10,2013-03-11 07:01:00,
2013-03-11 03:16:00,45.1,30.0,30.16,South,184,16.0,-999.0,56,-99.99,,,0.00,weatherlink.com 1.10,2013-03-11 07:16:00,
2013-03-11 03:31:00,45.0,30.0,30.15,South,186,13.0,-999.0,57,-99.99,,,0.00,weatherlink.com 1.10,2013-03-11 07:31:00,
2013-03-11 03:46:00,44.6,31.0,30.14,South,174,5.0,-999.0,59,-99.99,,,0.00,weatherlink.com 1.10,2013-03-11 07:46:00,
2013-03-11 04:01:00,44.0,31.0,30.14,SSW,192,5.0,-999.0,61,-99.99,,,0.00,weatherlink.com 1.10,2013-03-11 08:01:00,
2013-03-11 04:16:00,43.6,32.0,30.14,South,188,5.0,-999.0,63,-99.99,,,0.00,weatherlink.com 1.10,2013-03-11 08:16:00,
2013-03-11 04:31:00,43.2,32.0,30.14,South,184,19.0,-999.0,64,-99.99,,,0.00,weatherlink.com 1.10,2013-03-11 08:31:00,
2013-03-11 04:46:00,42.7,32.0,30.13,SSW,195,7.0,-999.0,65,-99.99,,,0.00,weatherlink.com 1.10,2013-03-11 08:46:00,
2013-03-11 05:01:00,42.2,32.0,30.14,South,185,5.0,-999.0,67,-99.99,,,0.00,weatherlink.com 1.10,2013-03-11 09:01:00,
2013-03-11 05:16:00,41.8,32.0,30.14,South,191,3.0,-999.0,69,-99.99,,,0.00,weatherlink.com 1.10,2013-03-11 09:16:00,
2013-03-11 05:31:00,41.4,32.0,30.14,SSE,153,3.0,-999.0,69,-99.99,,,0.00,weatherlink.com 1.10,2013-03-11 09:31:00,
2013-03-11 05:46:00,41.3,32.0,30.13,SSW,210,4.0,-999.0,70,-99.99,,,0.00,weatherlink.com 1.10,2013-03-11 09:46:00,
2013-03-11 06:01:00,40.9,32.0,30.16,SSE,163,2.0,-999.0,70,-99.99,,,0.00,weatherlink.com 1.10,2013-03-11 10:01:00,
2013-03-11 06:17:00,40.8,32.0,30.16,South,185,9.0,-999.0,71,-99.99,,,0.00,weatherlink.com 1.10,2013-03-11 10:17:00,
2013-03-11 06:31:00,40.8,32.0,30.16,SSW,210,7.0,-999.0,71,-99.99,,,0.00,weatherlink.com 1.10,2013-03-11 10:31:00,
2013-03-11 06:46:00,41.0,32.0,30.15,SSW,196,4.0,-999.0,70,-99.99,,,0.00,weatherlink.com 1.10,2013-03-11 10:46:00,
2013-03-11 07:01:00,40.7,32.0,30.14,SW,226,9.0,-999.0,71,-99.99,,,0.00,weatherlink.com 1.10,2013-03-11 11:01:00,
2013-03-11 07:16:00,39.7,32.0,30.13,SW,236,6.0,-999.0,73,-99.99,,,0.00,weatherlink.com 1.10,2013-03-11 11:16:00,
2013-03-11 07:32:00,39.7,32.0,30.14,SW,217,13.0,-999.0,73,-99.99,,,0.00,weatherlink.com 1.10,2013-03-11 11:32:00,
2013-03-11 07:47:00,39.7,32.0,30.14,SW,217,13.0,-999.0,73,-99.99,,,0.00,weatherlink.com 1.10,2013-03-11 11:47:00,
2013-03-11 08:02:00,40.1,32.0,30.13,SW,225,12.0,-999.0,74,-99.99,,,0.00,weatherlink.com 1.10,2013-03-11 12:02:00,
2013-03-11 08:17:00,40.6,32.0,30.14,SSW,200,5.0,-999.0,72,-99.99,,,0.00,weatherlink.com 1.10,2013-03-11 12:17:00,
2013-03-11 08:32:00,40.9,32.0,30.15,South,186,7.0,-999.0,71,-99.99,,,0.00,weatherlink.com 1.10,2013-03-11 12:32:00,
2013-03-11 08:47:00,41.6,32.0,30.15,SSW,204,5.0,-999.0,70,-99.99,,,0.00,weatherlink.com 1.10,2013-03-11 12:47:00,
2013-03-11 09:02:00,42.4,32.0,30.15,SSW,212,6.0,-999.0,67,-99.99,,,0.00,weatherlink.com 1.10,2013-03-11 13:02:00,
2013-03-11 09:17:00,42.6,32.0,30.15,SSW,204,14.0,-999.0,67,-99.99,,,0.00,weatherlink.com 1.10,2013-03-11 13:17:00,
2013-03-11 09:32:00,43.4,33.0,30.15,SW,220,14.0,-999.0,66,-99.99,,,0.00,weatherlink.com 1.10,2013-03-11 13:32:00,
2013-03-11 09:47:00,43.7,32.0,30.15,SW,230,8.0,-999.0,64,-99.99,,,0.00,weatherlink.com 1.10,2013-03-11 13:47:00,
2013-03-11 10:02:00,43.4,31.0,30.16,SSW,195,5.0,-999.0,62,-99.99,,,0.00,weatherlink.com 1.10,2013-03-11 14:02:00,
2013-03-11 10:17:00,43.4,31.0,30.15,SW,219,9.0,-999.0,62,-99.99,,,0.00,weatherlink.com 1.10,2013-03-11 14:17:00,
2013-03-11 10:32:00,44.1,32.0,30.14,SW,224,5.0,-999.0,62,-99.99,,,0.00,weatherlink.com 1.10,2013-03-11 14:32:00,
2013-03-11 10:47:00,44.5,31.0,30.14,SSW,193,8.0,-999.0,59,-99.99,,,0.00,weatherlink.com 1.10,2013-03-11 14:47:00,
2013-03-11 11:02:00,44.8,32.0,30.13,SW,236,11.0,-999.0,61,-99.99,,,0.00,weatherlink.com 1.10,2013-03-11 15:02:00,
2013-03-11 11:17:00,44.7,31.0,30.13,SSW,206,10.0,-999.0,59,-99.99,,,0.00,weatherlink.com 1.10,2013-03-11 15:17:00,
2013-03-11 11:32:00,45.2,31.0,30.13,SW,217,6.0,-999.0,58,-99.99,,,0.00,weatherlink.com 1.10,2013-03-11 15:32:00,
2013-03-11 11:47:00,44.8,31.0,30.13,SW,214,8.0,-999.0,60,-99.99,,,0.00,weatherlink.com 1.10,2013-03-11 15:47:00,
2013-03-11 12:02:00,44.3,31.0,30.13,SW,219,16.0,-999.0,61,-99.99,,,0.00,weatherlink.com 1.10,2013-03-11 16:02:00,
2013-03-11 12:17:00,44.5,31.0,30.14,South,186,15.0,-999.0,60,-99.99,,,0.00,weatherlink.com 1.10,2013-03-11 16:17:00,
2013-03-11 12:32:00,45.1,31.0,30.13,SSW,205,7.0,-999.0,58,-99.99,,,0.00,weatherlink.com 1.10,2013-03-11 16:32:00,
2013-03-11 12:47:00,46.1,32.0,30.13,SSW,195,7.0,-999.0,58,-99.99,,,0.00,weatherlink.com 1.10,2013-03-11 16:47:00,
2013-03-11 13:02:00,46.3,32.0,30.12,SSW,207,14.0,-999.0,57,-99.99,,,0.00,weatherlink.com 1.10,2013-03-11 17:02:00,
2013-03-11 13:17:00,46.4,32.0,30.13,South,177,13.0,-999.0,58,-99.99,,,0.00,weatherlink.com 1.10,2013-03-11 17:17:00,
2013-03-11 13:32:00,46.6,31.0,30.11,SW,224,7.0,-999.0,56,-99.99,,,0.00,weatherlink.com 1.10,2013-03-11 17:32:00,
2013-03-11 13:47:00,47.1,32.0,30.10,SW,219,6.0,-999.0,56,-99.99,,,0.00,weatherlink.com 1.10,2013-03-11 17:47:00,
2013-03-11 14:02:00,47.5,32.0,30.10,SW,216,10.0,-999.0,56,-99.99,,,0.00,weatherlink.com 1.10,2013-03-11 18:02:00,
2013-03-11 14:17:00,47.7,33.0,30.10,SSW,193,5.0,-999.0,57,-99.99,,,0.00,weatherlink.com 1.10,2013-03-11 18:17:00,
2013-03-11 14:32:00,48.2,33.0,30.09,South,179,12.0,-999.0,57,-99.99,,,0.00,weatherlink.com 1.10,2013-03-11 18:32:00,
2013-03-11 14:47:00,48.6,34.0,30.09,South,184,7.0,-999.0,57,-99.99,,,0.00,weatherlink.com 1.10,2013-03-11 18:47:00,
2013-03-11 15:02:00,49.1,34.0,30.08,SSW,192,12.0,-999.0,56,-99.99,,,0.00,weatherlink.com 1.10,2013-03-11 19:02:00,
2013-03-11 15:17:00,49.6,34.0,30.07,South,176,10.0,-999.0,56,-99.99,,,0.00,weatherlink.com 1.10,2013-03-11 19:17:00,
2013-03-11 15:32:00,49.8,34.0,30.07,SSW,195,12.0,-999.0,56,-99.99,,,0.00,weatherlink.com 1.10,2013-03-11 19:32:00,
2013-03-11 15:47:00,50.0,34.0,30.06,SW,229,13.0,-999.0,55,-99.99,,,0.00,weatherlink.com 1.10,2013-03-11 19:47:00,
2013-03-11 16:02:00,49.8,34.0,30.06,SSW,208,14.0,-999.0,56,-99.99,,,0.00,weatherlink.com 1.10,2013-03-11 20:02:00,
2013-03-11 16:17:00,49.7,35.0,30.05,South,183,12.0,-999.0,58,-99.99,,,0.00,weatherlink.com 1.10,2013-03-11 20:17:00,
2013-03-11 16:32:00,49.5,35.0,30.04,SSW,209,6.0,-999.0,58,-99.99,,,0.00,weatherlink.com 1.10,2013-03-11 20:32:00,
2013-03-11 16:47:00,49.3,36.0,30.03,SW,224,10.0,-999.0,61,-99.99,,,0.00,weatherlink.com 1.10,2013-03-11 20:47:00,
2013-03-11 17:02:00,49.1,36.0,30.02,SW,224,12.0,-999.0,62,-99.99,,,0.00,weatherlink.com 1.10,2013-03-11 21:02:00,
2013-03-11 17:17:00,49.0,36.0,30.02,WSW,238,10.0,-999.0,62,-99.99,,,0.00,weatherlink.com 1.10,2013-03-11 21:17:00,
2013-03-11 17:32:00,48.7,37.0,30.02,SW,222,10.0,-999.0,64,-99.99,,,0.00,weatherlink.com 1.10,2013-03-11 21:32:00,
2013-03-11 17:47:00,48.6,36.0,30.01,SW,229,10.0,-999.0,63,-99.99,,,0.00,weatherlink.com 1.10,2013-03-11 21:47:00,
2013-03-11 18:02:00,48.3,37.0,30.02,SW,221,7.0,-999.0,64,-99.99,,,0.00,weatherlink.com 1.10,2013-03-11 22:02:00,
2013-03-11 18:17:00,47.5,36.0,30.02,SSW,201,7.0,-999.0,65,-99.99,,,0.00,weatherlink.com 1.10,2013-03-11 22:17:00,
2013-03-11 18:32:00,47.8,36.0,30.02,SW,223,9.0,-999.0,64,-99.99,,,0.00,weatherlink.com 1.10,2013-03-11 22:32:00,
2013-03-11 18:47:00,47.4,36.0,30.02,SW,231,7.0,-999.0,65,-99.99,,,0.00,weatherlink.com 1.10,2013-03-11 22:47:00,
2013-03-11 19:02:00,47.4,36.0,30.02,SW,231,6.0,-999.0,64,-99.99,,,0.00,weatherlink.com 1.10,2013-03-11 23:02:00,
2013-03-11 19:17:00,47.6,35.0,30.02,SW,221,9.0,-999.0,63,-99.99,,,0.00,weatherlink.com 1.10,2013-03-11 23:17:00,
2013-03-11 19:32:00,48.1,35.0,30.02,SW,217,5.0,-999.0,62,-99.99,,,0.00,weatherlink.com 1.10,2013-03-11 23:32:00,
2013-03-11 19:47:00,47.6,35.0,30.01,SW,230,4.0,-999.0,62,-99.99,,,0.00,weatherlink.com 1.10,2013-03-11 23:47:00,
2013-03-11 20:02:00,47.2,35.0,30.02,SW,236,2.0,-999.0,63,-99.99,,,0.00,weatherlink.com 1.10,2013-03-12 00:02:00,
2013-03-11 20:17:00,45.3,34.0,30.02,SE,145,3.0,-999.0,65,-99.99,,,0.00,weatherlink.com 1.10,2013-03-12 00:17:00,
2013-03-11 20:32:00,46.2,34.0,30.01,SSE,160,6.0,-999.0,63,-99.99,,,0.00,weatherlink.com 1.10,2013-03-12 00:32:00,
2013-03-11 20:47:00,48.2,34.0,30.00,SE,146,6.0,-999.0,59,-99.99,,,0.00,weatherlink.com 1.10,2013-03-12 00:47:00,
2013-03-11 21:02:00,48.2,34.0,30.00,South,184,10.0,-999.0,59,-99.99,,,0.00,weatherlink.com 1.10,2013-03-12 01:02:00,
2013-03-11 21:17:00,48.0,35.0,30.00,SE,136,15.0,-999.0,60,-99.99,,,0.00,weatherlink.com 1.10,2013-03-12 01:17:00,
2013-03-11 21:32:00,48.1,34.0,29.99,SSE,162,12.0,-999.0,59,-99.99,,,0.00,weatherlink.com 1.10,2013-03-12 01:32:00,
2013-03-11 21:47:00,47.9,34.0,29.99,SE,145,12.0,-999.0,59,-99.99,,,0.00,weatherlink.com 1.10,2013-03-12 01:47:00,
2013-03-11 22:02:00,47.4,34.0,29.99,SE,135,5.0,-999.0,60,-99.99,,,0.00,weatherlink.com 1.10,2013-03-12 02:02:00,
2013-03-11 22:17:00,47.4,34.0,29.99,SSE,160,3.0,-999.0,60,-99.99,,,0.00,weatherlink.com 1.10,2013-03-12 02:17:00,
2013-03-11 22:32:00,47.5,34.0,29.99,SE,141,5.0,-999.0,59,-99.99,,,0.00,weatherlink.com 1.10,2013-03-12 02:32:00,
2013-03-11 22:47:00,47.5,34.0,29.98,SSE,148,5.0,-999.0,59,-99.99,,,0.00,weatherlink.com 1.10,2013-03-12 02:47:00,
2013-03-11 23:02:00,47.9,34.0,29.98,SE,146,5.0,-999.0,58,-99.99,,,0.00,weatherlink.com 1.10,2013-03-12 03:02:00,
2013-03-11 23:17:00,48.1,33.0,29.99,SSE,147,7.0,-999.0,57,-99.99,,,0.00,weatherlink.com 1.10,2013-03-12 03:17:00,
2013-03-11 23:32:00,47.6,33.0,29.99,SSE,157,3.0,-999.0,58,-99.99,,,0.00,weatherlink.com 1.10,2013-03-12 03:32:00,
2013-03-11 23:47:00,47.3,33.0,29.99,SSE,159,6.0,-999.0,59,-99.99,,,0.00,weatherlink.com 1.10,2013-03-12 03:47:00,